Regional Weather Roundup
Issued by NWS

Home | Current Version | Previous Version | Text Only | Print | Product List | Glossary Off
Versions: 1 2 3 4 5 6 7 8 9 10 11 12 13 14 15 16 17 18 19 20 21 22 23 24 25 26 27 28 29 30 31 32 33 34 35 36 37 38 39 40 41 42 43 44 45 46 47 48 49 50

703
ASUS45 KCYS 270010
RWRWY

WYOMING REGIONAL WEATHER ROUNDUP
NATIONAL WEATHER SERVICE CHEYENNE WY
600 PM MDT TUE JUL 26 2016

NOTE:  "FAIR" INDICATES FEW OR NO CLOUDS BELOW 12,000 FEET
WITH NO SIGNIFICANT WEATHER AND/OR OBSTRUCTIONS TO VISIBILITY.

WYZ001-270100-
YELLOWSTONE NATIONAL PARK

CITY           SKY/WX    TMP DP  RH WIND       PRES   REMARKS
LK YELLOWSTONE   N/A     71  30  21 NW7       30.36R
6HR MIN TEMP:  66; 6HR MAX TEMP:  78;

W YELLOWSTONE  NOT AVBL

$$
WYZ002>013-054>058-071-098>099-270100-
NORTHERN WYOMING

CITY           SKY/WX    TMP DP  RH WIND       PRES   REMARKS
JACKSON        SUNNY     88  28  11 W7G17     30.17R
CODY           FAIR      82  43  24 N8G20     30.13R
GREYBULL       FAIR      95  37  13 NW14G24   29.98S HX  90
6HR MIN TEMP:  83; 6HR MAX TEMP:  97;

WORLAND        FAIR      90  38  16 N8        30.01R
6HR MIN TEMP:  83; 6HR MAX TEMP:  95;

SHERIDAN       FAIR      89  44  20 VRB3      30.04S
6HR MIN TEMP:  84; 6HR MAX TEMP:  91;

BUFFALO        FAIR      78  55  44 W12       30.13S
6HR MIN TEMP:  68; 6HR MAX TEMP:  91; 6HR PCP:  0.15;

GILLETTE       FAIR      84  45  25 N21       30.07R
6HR MIN TEMP:  83; 6HR MAX TEMP:  91;

HULETT         MOCLDY    81  57  44 E10G18    30.08S
NEWCASTLE      LGT RAIN  70  57  64 E6        30.05R

$$
WYZ014>020-022>026-101>103-270100-
CENTRAL WYOMING

CITY           SKY/WX    TMP DP  RH WIND       PRES   REMARKS
BIG PINEY      FAIR      83  32  16 NW8       30.22S
6HR MIN TEMP:  81; 6HR MAX TEMP:  90;

PINEDALE       FAIR      81  27  13 N17G29    30.24R
DUBOIS         FAIR      82  23  11 NW13G21   30.21S
LANDER         FAIR      87  31  13 NE5       30.06F
6HR MIN TEMP:  79; 6HR MAX TEMP:  93;

RIVERTON       FAIR      91  32  12 N7        30.09R
6HR MIN TEMP:  80; 6HR MAX TEMP:  94;

CASPER         FAIR      90  32  12 CALM      30.07F
6HR MIN TEMP:  81; 6HR MAX TEMP:  93;

DOUGLAS          N/A    N/A N/A N/A MISG      30.05F

$$
WYZ021-027>030-104>119-270100-
SOUTHERN WYOMING

CITY           SKY/WX    TMP DP  RH WIND       PRES   REMARKS
EVANSTON       FAIR      87  15   7 W22       30.25R
6HR MIN TEMP:  84; 6HR MAX TEMP:  91;

KEMMERER         N/A     86  19   8 W20G31    30.25S
FORT BRIDGER   CLEAR     86  28  12 S10G16    30.25S
ROCK SPRINGS   FAIR      82  30  15 S6        30.21
6HR MIN TEMP:  78; 6HR MAX TEMP:  91; 6HR PCP: TRACE;

DIXON          FAIR      83  32  16 S28G33    30.25R
RAWLINS        FAIR      85  25  11 SW9G20    30.21S
6HR MIN TEMP:  81; 6HR MAX TEMP:  91;

SARATOGA       FAIR      82  27  13 W7        30.25S
LARAMIE        FAIR      79  25  13 W6        30.25F
6HR MIN TEMP:  79; 6HR MAX TEMP:  89;

CHEYENNE       FAIR      82  41  23 SE13      30.17F
6HR MIN TEMP:  77; 6HR MAX TEMP:  90; 6HR PCP:  0.08;

TORRINGTON     LGT RAIN  86  40  19 SW9G21    29.98R
6HR MIN TEMP:  83; 6HR MAX TEMP:  98; 6HR PCP:  0.01;

PINE BLUFFS    FAIR      84  41  21 CALM      30.10F

$$




USA.gov is the U.S. government's official web portal to all federal, state and local government web resources and services.